Torna al catalogo

CZ-6A DEB

AttivoSSO
NORAD 54580·DEBRIS·🇨🇳 China

Lanciato Nov 11, 2022 da Taiyuan Satellite Launch Center

Loading…

Prossimi Passaggi (prossime 24 ore)

TLE

AggiornatoSource: Space-Track

Epoca: Sep 14, 2026, 11:56 UTC

1 54580U 22151MG  26257.49779474  .00003529  00000-0  14715-2 0  9995
2 54580  98.8598 273.9923 0087984 104.6713 256.4239 14.24798655197531

Traccia CZ-6A DEB in tempo reale con AllMySat

Download on the App Store